Kezdőlap
METAR-TAF:

METAR-TAF

Repülőterek :

Mount Pleasant Municipal Airport

Mount Pleasant, Iowa, Amerikai Egyesült Államok

földrajzi szélesség: 40-56-48N, földrajzi hosszúság: 091-30-40W, magasság: 224 m

Jelenlegi meteorológiai megfigyelések

A jelentés 26 perccel ezelõtt készült, 20:35 UTC
Északnyugati szél 20 kt széllökések: 29 kt
Hőmérséklet 13°C
Páratartalom 35%
Légköri nyomás 1006 hPa
Látótávolság: 16.1 km
Derült ég

METAR: KMPZ 232035Z AUTO 31020G29KT 10SM CLR 13/M02 A2972 RMK AO2

Idő: 15:01 (21:01 UTC)


TAF: hiányzik

Meteorológiai megfigyelések és előrejelzések több, mint 4000 repülőtéren (METAR és TAF jelentéseket).

A térképen piros és sárga pontok jelzik az elérhető meteorológiai állomásokat.

Mozgassa az egeret a pont fölött, hogy megjelenjen az állomás neve.

Azután kattintson az időjárási megfigyelések és előrejelzések megtekintéséhez.

A térkép megváltoztatása: kattintson a fekete keresztel jelölt zöld gombra ráközelítéshez, a vonallal jelölt zöld gombra távolításhoz, vagy a zöld nyilakra a szomszédos térképek eléréséhez.


METAR-TAF: